Погода в Комарово

Россия / Санкт-Петербург и Ленинградская область     60°11′19″N   29°48′34″E
темп.,
°C
ветер,
м/с
пор.,
м/с
влажн.,
%
обл.,
%
осадки,
мм/ч
давл.,
гПа
погр.,
м
17 июня, чт
чт1700:00+11юз3108039 0.0 1019223
03:00+11зюз398334 0.0 1020181
06:00+13зюз39779 0.0 1021289
09:00+17з475710 0.0 1022700
12:00+19зюз454821 0.0 1023998
15:00+20зюз45435 0.0 1023853
18:00+19зюз4641100 0.0 1023625
21:00+16юз116122 0.0 102311
18 июня, пт
пт1800:00+13ююв22655 0.0 102311
03:00+13ююз23810 0.0 102341
06:00+15ю27765 0.0 1023164
09:00+19зюз48630 0.0 1022429
12:00+22зюз595119 0.0 10211074
15:00+24зюз610431 0.0 10201198
18:00+24зюз510455 0.0 10191229
21:00+19юз27655 0.0 1019156
19 июня, сб
сб1900:00+16зюз27740 0.0 1020103
03:00+15юз27850 0.0 1020118
06:00+16зюз38790 0.0 1020212
09:00+21зюз47679 0.0 1020443
12:00+24зюз586010 0.0 10201019
15:00+26з58501 0.0 10191426
18:00+26зюз46492 0.0 10181405
21:00+21ю23700 0.0 101842
20 июня, вс
вс2000:00+19ююв227498 0.0 101919
03:00+19ююз257484 0.0 1019127
06:00+18ю25780 0.0 1018135
09:00+23юз36625 0.0 1018458
12:00+25зюз475530 0.0 10181545
15:00+27зюз584941 0.0 10171653
18:00+27з48501 0.0 10161538
21:00+23з236794 0.0 101664
21 июня, пн
пн2100:00+19ююз227985 0.0 101724
03:00+19юз117897 0.0 101711
06:00+20ю127865 0.0 101768
09:00+22ю127055 0.0 1017156
12:00+26ююз23560 0.0 1017590
15:00+29ю244566 0.0 10161752
18:00+29ююз234545 0.4 1015964
21:00+23юв267630 1.1 1016124